Date String (YYYY-MM-DD hh:mm:ss) UTC,Instrument flags,Ambient pressure (hPa),Sample flow (lpm),Bypass flow (lpm),Sample temperature (°C),Ambient temperature (°C),ASC tube jacket temperature (°C),LED temperature (°C),Box temperature (°C),Sample RH (%),Span deviation,Mass concentration (μg/m³),Mass concentration (μg/m³),Mass concentration (μg/m³)
DateTimeUTC,F1_M11,P_M11,Q1_M11,Q2_M11,T1_M11,T2_M11,T3_M11,T4_M11,T5_M11,U1_M11,ZSPAN_M11,X0_M11,X2_M11,X1_M11
2021-11-28 20:00:00,,0829.4,4.99,0.00,27.7,26.9,00.0,36.6,29.6,11.9,0000.0,0011.63,0003.52,0002.78
2021-11-28 20:01:00,,0829.5,5.00,0.00,27.7,26.9,00.0,36.7,29.6,11.9,0000.0,0011.03,0003.46,0002.72
2021-11-28 20:02:00,,0829.5,5.01,0.00,27.8,27.0,00.0,36.7,29.6,11.9,0000.0,0010.49,0003.42,0002.66
2021-11-28 20:03:00,,0829.5,4.99,0.00,27.8,27.0,00.0,36.7,29.6,12.0,0000.0,0011.36,0003.40,0002.62
2021-11-28 20:04:00,,0829.5,5.00,0.00,27.8,27.0,00.0,36.7,29.6,12.0,0000.0,0011.33,0003.38,0002.59
2021-11-28 20:05:00,,0829.5,5.01,0.00,27.8,27.0,00.0,36.7,29.6,12.0,0000.0,0011.02,0003.31,0002.54
2021-11-28 20:06:00,,0829.5,5.00,0.00,27.8,27.0,00.0,36.7,29.6,12.0,0000.0,0010.63,0003.29,0002.52
2021-11-28 20:07:00,,0829.5,5.00,0.00,27.8,27.0,00.0,36.7,29.7,12.0,0000.0,0009.81,0003.29,0002.49
2021-11-28 20:08:00,,0829.5,4.98,0.00,27.8,27.1,00.0,36.7,29.6,12.1,0000.0,0009.85,0003.27,0002.45
2021-11-28 20:09:00,,0829.5,5.00,0.00,27.8,27.1,00.0,36.7,29.7,12.1,0000.0,0010.51,0003.24,0002.42
2021-11-28 20:10:00,,0829.5,5.01,0.00,27.9,27.1,00.0,36.8,29.7,12.1,0000.0,0009.92,0003.21,0002.37
2021-11-28 20:11:00,,0829.5,4.99,0.00,27.9,27.1,00.0,36.8,29.7,12.0,0000.0,0009.99,0003.18,0002.32
2021-11-28 20:12:00,,0829.3,5.01,0.00,27.9,27.2,00.0,36.8,29.7,12.0,0000.0,0010.10,0003.16,0002.30
2021-11-28 20:13:00,,0829.3,4.99,0.00,27.9,27.2,00.0,36.8,29.8,12.1,0000.0,0009.69,0003.13,0002.27
2021-11-28 20:14:00,,0829.4,5.01,0.00,27.9,27.2,00.0,36.8,29.8,12.0,0000.0,0008.84,0003.14,0002.24
2021-11-28 20:15:00,,0829.3,5.00,0.00,28.0,27.2,00.0,36.8,29.8,12.0,0000.0,0008.82,0003.13,0002.22
2021-11-28 20:16:00,,0829.3,5.01,0.00,28.0,27.3,00.0,36.8,29.8,12.0,0000.0,0009.21,0003.08,0002.20
2021-11-28 20:17:00,,0829.4,5.00,0.00,28.0,27.3,00.0,36.8,29.8,12.0,0000.0,0009.59,0003.01,0002.16
2021-11-28 20:18:00,,0829.5,4.98,0.00,28.0,27.3,00.0,36.9,29.8,12.0,0000.0,0010.05,0003.01,0002.12
2021-11-28 20:19:00,,0829.5,5.00,0.00,28.0,27.3,00.0,36.9,29.9,12.0,0000.0,0009.77,0002.98,0002.10
2021-11-28 20:20:00,,0829.5,5.00,0.00,28.0,27.4,00.0,36.9,29.9,12.0,0000.0,0008.95,0002.94,0002.08
2021-11-28 20:21:00,,0829.3,5.00,0.00,28.1,27.4,00.0,36.9,29.9,12.0,0000.0,0008.46,0002.86,0002.05
2021-11-28 20:22:00,,0829.2,5.00,0.00,28.1,27.4,00.0,36.9,30.0,11.9,0000.0,0008.46,0002.79,0002.03
2021-11-28 20:23:00,,0829.2,4.99,0.00,28.1,27.4,00.0,37.0,30.0,11.9,0000.0,0008.63,0002.78,0001.99
2021-11-28 20:24:00,,0829.2,5.00,0.00,28.1,27.5,00.0,37.0,30.0,11.9,0000.0,0008.98,0002.76,0001.95
2021-11-28 20:25:00,,0829.3,5.01,0.00,28.2,27.5,00.0,37.0,30.0,11.9,0000.0,0008.91,0002.70,0001.93
2021-11-28 20:26:00,,0829.2,4.99,0.00,28.2,27.5,00.0,37.0,30.0,11.9,0000.0,0008.84,0002.66,0001.89
2021-11-28 20:27:00,,0829.2,5.00,0.00,28.2,27.5,00.0,37.0,30.1,11.9,0000.0,0008.42,0002.71,0001.88
2021-11-28 20:28:00,,0829.2,4.98,0.00,28.2,27.6,00.0,37.1,30.1,11.9,0000.0,0008.06,0002.77,0001.87
2021-11-28 20:29:00,,0829.2,5.01,0.00,28.3,27.6,00.0,37.1,30.1,11.9,0000.0,0007.65,0002.73,0001.84
2021-11-28 20:30:00,,0829.2,5.01,0.00,28.3,27.6,00.0,37.1,30.1,11.9,0000.0,0007.73,0002.74,0001.81
2021-11-28 20:31:00,,0829.2,5.00,0.00,28.3,27.7,00.0,37.1,30.2,11.8,0000.0,0007.92,0002.73,0001.77
2021-11-28 20:32:00,,0829.2,4.99,0.00,28.3,27.7,00.0,37.2,30.2,11.8,0000.0,0008.01,0002.71,0001.74
2021-11-28 20:33:00,,0829.2,5.01,0.00,28.4,27.7,00.0,37.2,30.2,11.7,0000.0,0007.91,0002.71,0001.73
2021-11-28 20:34:00,,0829.2,5.00,0.00,28.4,27.7,00.0,37.2,30.3,11.7,0000.0,0006.89,0002.71,0001.72
2021-11-28 20:35:00,,0829.2,4.99,0.00,28.4,27.7,00.0,37.2,30.3,11.7,0000.0,0006.09,0002.72,0001.70
2021-11-28 20:36:00,,0829.2,5.01,0.00,28.4,27.7,00.0,37.3,30.3,11.7,0000.0,0006.38,0002.74,0001.67
2021-11-28 20:37:00,,0829.2,5.00,0.00,28.4,27.8,00.0,37.3,30.3,11.7,0000.0,0006.62,0002.69,0001.64
2021-11-28 20:38:00,,0829.2,5.01,0.00,28.5,27.8,00.0,37.3,30.3,11.6,0000.0,0006.76,0002.60,0001.59
2021-11-28 20:39:00,,0829.1,5.00,0.00,28.5,27.8,00.0,37.3,30.3,11.7,0000.0,0006.55,0002.52,0001.54
2021-11-28 20:40:00,,0829.1,4.99,0.00,28.5,27.8,00.0,37.3,30.4,11.7,0000.0,0006.65,0002.51,0001.50
2021-11-28 20:41:00,,0829.2,5.01,0.00,28.5,27.8,00.0,37.4,30.4,11.6,0000.0,0006.53,0002.43,0001.47
2021-11-28 20:42:00,,0829.2,5.00,0.00,28.5,27.8,00.0,37.4,30.4,11.6,0000.0,0006.46,0002.40,0001.44
2021-11-28 20:43:00,,0829.1,4.98,0.00,28.6,27.9,00.0,37.4,30.4,11.6,0000.0,0006.69,0002.41,0001.41
2021-11-28 20:44:00,,0829.0,5.02,0.00,28.6,27.9,00.0,37.4,30.4,11.5,0000.0,0007.23,0002.40,0001.38
2021-11-28 20:45:00,,0829.0,5.00,0.00,28.6,27.9,00.0,37.4,30.5,11.5,0000.0,0007.93,0002.32,0001.33
2021-11-28 20:46:00,,0828.9,4.98,0.00,28.6,27.9,00.0,37.5,30.5,11.5,0000.0,0008.85,0002.28,0001.31
2021-11-28 20:47:00,,0828.9,5.02,0.00,28.6,28.0,00.0,37.5,30.5,11.6,0000.0,0009.18,0002.29,0001.29
2021-11-28 20:48:00,,0828.9,4.99,0.00,28.7,28.0,00.0,37.5,30.5,11.6,0000.0,0009.21,0002.28,0001.27
2021-11-28 20:49:00,,0828.9,5.00,0.00,28.7,28.0,00.0,37.5,30.5,11.6,0000.0,0009.29,0002.26,0001.27
2021-11-28 20:50:00,,0828.9,4.99,0.00,28.7,28.0,00.0,37.5,30.5,11.6,0000.0,0010.50,0002.23,0001.26
2021-11-28 20:51:00,,0828.9,5.00,0.00,28.7,28.0,00.0,37.6,30.6,11.5,0000.0,0012.22,0002.17,0001.25
2021-11-28 20:52:00,,0828.9,5.01,0.00,28.7,28.0,00.0,37.6,30.6,11.5,0000.0,0012.53,0002.23,0001.24
2021-11-28 20:53:00,,0828.9,4.99,0.00,28.7,28.1,00.0,37.6,30.6,11.6,0000.0,0012.47,0002.23,0001.23
2021-11-28 20:54:00,,0828.9,5.01,0.00,28.8,28.1,00.0,37.6,30.6,11.6,0000.0,0013.21,0002.26,0001.21
2021-11-28 20:55:00,,0828.9,5.00,0.00,28.8,28.1,00.0,37.6,30.6,11.5,0000.0,0013.23,0002.26,0001.19
2021-11-28 20:56:00,,0828.9,4.99,0.00,28.8,28.1,00.0,37.7,30.6,11.5,0000.0,0013.36,0002.23,0001.17
2021-11-28 20:57:00,,0828.8,4.99,0.00,28.8,28.2,00.0,37.7,30.7,11.5,0000.0,0012.60,0002.21,0001.17
2021-11-28 20:58:00,,0828.8,5.00,0.00,28.8,28.2,00.0,37.7,30.7,11.4,0000.0,0012.24,0002.12,0001.15
2021-11-28 20:59:00,,0828.8,5.00,0.00,28.9,28.2,00.0,37.7,30.7,11.5,0000.0,0012.34,0002.07,0001.14
